JST518 YMLT-YMAV

Flight info

Callsign JST518
Flight time 0h 45m
Altitude 34000
Route IRSOM DCT DIPLO DCT TAITE DCT ML
Aircraft A321/M-SDE3FGHIRWY/LB1

Departure

Time 2026-04-29 02:21
Airport Launceston Airport (YMLT)

Arrival

Time 2026-04-29 03:06
Airport Melbourne Avalon International Airport (YMAV)
Time Latitude Longitude Altitude Speed Heading
2026-04-29 02:13 -41.54316 147.20682 583 ft 0 kts 296°
2026-04-29 02:15 -41.54315 147.20681 583 ft 0 kts 296°
2026-04-29 02:15 -41.54307 147.20669 583 ft 4 kts 320°
2026-04-29 02:16 -41.54283 147.20678 583 ft 4 kts 64°
2026-04-29 02:16 -41.54295 147.20719 584 ft 5 kts 133°
2026-04-29 02:16 -41.54324 147.20755 584 ft 6 kts 144°
2026-04-29 02:16 -41.54363 147.20784 584 ft 7 kts 149°
2026-04-29 02:17 -41.54406 147.20820 584 ft 8 kts 147°
2026-04-29 02:17 -41.54452 147.20862 585 ft 7 kts 146°
2026-04-29 02:17 -41.54483 147.20889 587 ft 2 kts 146°
2026-04-29 02:17 -41.54485 147.20891 588 ft 0 kts 146°
2026-04-29 02:18 -41.54507 147.20910 589 ft 10 kts 147°
2026-04-29 02:18 -41.54583 147.20974 590 ft 14 kts 147°
2026-04-29 02:18 -41.54670 147.21050 588 ft 16 kts 148°
2026-04-29 02:18 -41.54766 147.21130 587 ft 17 kts 148°
2026-04-29 02:19 -41.54875 147.21222 583 ft 19 kts 147°
2026-04-29 02:19 -41.54987 147.21318 584 ft 19 kts 148°
2026-04-29 02:19 -41.55100 147.21416 584 ft 19 kts 146°
2026-04-29 02:19 -41.55198 147.21501 587 ft 13 kts 144°
2026-04-29 02:20 -41.55229 147.21599 589 ft 11 kts 85°
2026-04-29 02:20 -41.55192 147.21672 591 ft 10 kts 14°
2026-04-29 02:20 -41.55049 147.21570 591 ft 55 kts 328°
2026-04-29 02:20 -41.54506 147.21097 594 ft 127 kts 328°
2026-04-29 02:21 -41.53615 147.20322 770 ft 165 kts 326°
2026-04-29 02:21 -41.52685 147.19502 1665 ft 161 kts 326°
2026-04-29 02:21 -41.51872 147.18437 2412 ft 173 kts 300°
2026-04-29 02:21 -41.51425 147.16824 2921 ft 197 kts 284°
2026-04-29 02:22 -41.51156 147.14967 3581 ft 211 kts 287°
2026-04-29 02:22 -41.50486 147.13160 4224 ft 226 kts 304°
2026-04-29 02:22 -41.49608 147.11311 4934 ft 248 kts 303°
2026-04-29 02:22 -41.48657 147.09312 5679 ft 260 kts 302°
2026-04-29 02:23 -41.47679 147.07257 6321 ft 265 kts 302°
2026-04-29 02:23 -41.46687 147.05176 7025 ft 267 kts 301°
2026-04-29 02:23 -41.45687 147.03076 7697 ft 269 kts 301°
2026-04-29 02:23 -41.44691 147.00987 8373 ft 271 kts 301°
2026-04-29 02:24 -41.43674 146.98854 9068 ft 274 kts 300°
2026-04-29 02:24 -41.42653 146.96707 9775 ft 276 kts 300°
2026-04-29 02:24 -41.41616 146.94527 10328 ft 285 kts 300°
2026-04-29 02:25 -41.39332 146.89723 10612 ft 327 kts 300°
2026-04-29 02:25 -41.38090 146.87123 11034 ft 336 kts 300°
2026-04-29 02:25 -41.36826 146.84486 11612 ft 340 kts 300°
2026-04-29 02:25 -41.35548 146.81828 12228 ft 342 kts 300°
2026-04-29 02:26 -41.34261 146.79155 12837 ft 344 kts 300°
2026-04-29 02:26 -41.32966 146.76460 13461 ft 347 kts 300°
2026-04-29 02:26 -41.31659 146.73744 14090 ft 350 kts 300°
2026-04-29 02:26 -41.30341 146.71005 14653 ft 353 kts 300°
2026-04-29 02:27 -41.29012 146.68246 15216 ft 355 kts 300°
2026-04-29 02:27 -41.27623 146.65514 15771 ft 360 kts 307°
2026-04-29 02:27 -41.25721 146.63302 16280 ft 370 kts 324°
2026-04-29 02:27 -41.23500 146.61540 16836 ft 373 kts 326°
2026-04-29 02:28 -41.21252 146.59806 17395 ft 376 kts 326°
2026-04-29 02:28 -41.18975 146.58070 17932 ft 379 kts 327°
2026-04-29 02:28 -41.16675 146.56322 18470 ft 382 kts 326°
2026-04-29 02:28 -41.14364 146.54559 18965 ft 385 kts 326°
2026-04-29 02:29 -41.12043 146.52781 19425 ft 387 kts 326°
2026-04-29 02:29 -41.09699 146.50984 19890 ft 390 kts 326°
2026-04-29 02:29 -41.07349 146.49179 20348 ft 392 kts 326°
2026-04-29 02:29 -41.04981 146.47359 20827 ft 395 kts 326°
2026-04-29 02:30 -41.02596 146.45526 21288 ft 397 kts 326°
2026-04-29 02:30 -41.00194 146.43682 21742 ft 400 kts 326°
2026-04-29 02:30 -40.97810 146.41857 22173 ft 403 kts 326°
2026-04-29 02:30 -40.95343 146.39971 22613 ft 405 kts 325°
2026-04-29 02:31 -40.92896 146.38100 23014 ft 408 kts 326°
2026-04-29 02:31 -40.90462 146.36245 23411 ft 411 kts 326°
2026-04-29 02:31 -40.87980 146.34359 23813 ft 413 kts 326°
2026-04-29 02:31 -40.85478 146.32455 24173 ft 416 kts 326°
2026-04-29 02:32 -40.82966 146.30544 24517 ft 418 kts 326°
2026-04-29 02:32 -40.80446 146.28628 24869 ft 419 kts 326°
2026-04-29 02:32 -40.77915 146.26704 25215 ft 421 kts 325°
2026-04-29 02:32 -40.75371 146.24771 25560 ft 422 kts 325°
2026-04-29 02:33 -40.72821 146.22837 25898 ft 424 kts 325°
2026-04-29 02:33 -40.70260 146.20896 26234 ft 425 kts 325°
2026-04-29 02:33 -40.67691 146.18950 26561 ft 427 kts 326°
2026-04-29 02:33 -40.65105 146.16992 26868 ft 429 kts 325°
2026-04-29 02:34 -40.62514 146.15032 27186 ft 431 kts 326°
2026-04-29 02:34 -40.59907 146.13070 27510 ft 433 kts 326°
2026-04-29 02:34 -40.57290 146.11106 27819 ft 434 kts 325°
2026-04-29 02:34 -40.54665 146.09127 28127 ft 436 kts 325°
2026-04-29 02:35 -40.52031 146.07136 28433 ft 437 kts 325°
2026-04-29 02:35 -40.49392 146.05146 28705 ft 439 kts 325°
2026-04-29 02:35 -40.46733 146.03148 28981 ft 441 kts 325°
2026-04-29 02:35 -40.44062 146.01145 29267 ft 443 kts 325°
2026-04-29 02:36 -40.41384 145.99139 29549 ft 444 kts 325°
2026-04-29 02:36 -40.38696 145.97126 29822 ft 447 kts 325°
2026-04-29 02:36 -40.35990 145.95099 30100 ft 449 kts 325°
2026-04-29 02:36 -40.33276 145.93067 30379 ft 450 kts 325°
2026-04-29 02:37 -40.30556 145.91034 30719 ft 449 kts 325°
2026-04-29 02:37 -40.27846 145.89007 31067 ft 448 kts 325°
2026-04-29 02:37 -40.25143 145.86987 31400 ft 447 kts 325°
2026-04-29 02:37 -40.22449 145.84977 31734 ft 446 kts 325°
2026-04-29 02:38 -40.19787 145.82996 32056 ft 445 kts 325°
2026-04-29 02:38 -40.17104 145.81003 32380 ft 444 kts 325°
2026-04-29 02:38 -40.14421 145.79012 32684 ft 443 kts 326°
2026-04-29 02:38 -40.11738 145.77023 33011 ft 442 kts 326°
2026-04-29 02:39 -40.09068 145.75045 33315 ft 441 kts 326°
2026-04-29 02:39 -40.06397 145.73067 33619 ft 441 kts 326°
2026-04-29 02:39 -40.03728 145.71099 33919 ft 440 kts 326°
2026-04-29 02:39 -40.01065 145.69135 34216 ft 439 kts 326°
2026-04-29 02:40 -39.98425 145.67142 34422 ft 438 kts 324°
2026-04-29 02:40 -39.93324 145.62916 34447 ft 432 kts 322°
2026-04-29 02:41 -39.88330 145.58579 34446 ft 432 kts 322°
2026-04-29 02:41 -39.83302 145.54284 34448 ft 432 kts 322°
2026-04-29 02:42 -39.78238 145.50069 34435 ft 432 kts 323°
2026-04-29 02:42 -39.73172 145.45873 34447 ft 432 kts 323°
2026-04-29 02:43 -39.68967 145.42369 34447 ft 432 kts 323°
2026-04-29 02:43 -39.63059 145.37445 34452 ft 432 kts 323°
2026-04-29 02:44 -39.58852 145.33950 34409 ft 431 kts 323°
2026-04-29 02:44 -39.56340 145.31870 33987 ft 427 kts 323°
2026-04-29 02:44 -39.53849 145.29806 33486 ft 423 kts 323°
2026-04-29 02:44 -39.51374 145.27761 33000 ft 420 kts 323°
2026-04-29 02:45 -39.48916 145.25729 32507 ft 417 kts 323°
2026-04-29 02:45 -39.45690 145.23066 31860 ft 413 kts 323°
2026-04-29 02:45 -39.44055 145.21719 31526 ft 411 kts 323°
2026-04-29 02:45 -39.41651 145.19744 30928 ft 411 kts 323°
2026-04-29 02:46 -39.39199 145.17724 29760 ft 423 kts 323°
2026-04-29 02:46 -39.36697 145.15658 28835 ft 428 kts 323°
2026-04-29 02:46 -39.34186 145.13585 28120 ft 428 kts 324°
2026-04-29 02:46 -39.31682 145.11524 27502 ft 426 kts 324°
2026-04-29 02:47 -39.29184 145.09469 26943 ft 423 kts 324°
2026-04-29 02:47 -39.26740 145.07468 26792 ft 410 kts 324°
2026-04-29 02:47 -39.24371 145.05530 26661 ft 397 kts 324°
2026-04-29 02:47 -39.22065 145.03644 26440 ft 388 kts 324°
2026-04-29 02:48 -39.19831 145.01814 26089 ft 384 kts 324°
2026-04-29 02:48 -39.17579 144.99968 25705 ft 382 kts 324°
2026-04-29 02:48 -39.15348 144.98144 25302 ft 379 kts 324°
2026-04-29 02:48 -39.13124 144.96329 24900 ft 377 kts 325°
2026-04-29 02:49 -39.10914 144.94524 24496 ft 375 kts 325°
2026-04-29 02:49 -39.08714 144.92727 24093 ft 374 kts 325°
2026-04-29 02:49 -39.06522 144.90937 23620 ft 372 kts 325°
2026-04-29 02:49 -39.04344 144.89159 23155 ft 369 kts 325°
2026-04-29 02:50 -39.02184 144.87397 22681 ft 367 kts 326°
2026-04-29 02:50 -39.00029 144.85642 22235 ft 365 kts 326°
2026-04-29 02:50 -38.97891 144.83907 21781 ft 362 kts 326°
2026-04-29 02:50 -38.95764 144.82186 21327 ft 360 kts 326°
2026-04-29 02:51 -38.93650 144.80479 20885 ft 358 kts 326°
2026-04-29 02:51 -38.91545 144.78781 20447 ft 356 kts 327°
2026-04-29 02:51 -38.89458 144.77095 20017 ft 354 kts 327°
2026-04-29 02:51 -38.87381 144.75412 19591 ft 352 kts 327°
2026-04-29 02:52 -38.85324 144.73741 19164 ft 347 kts 327°
2026-04-29 02:52 -38.83288 144.72088 18503 ft 344 kts 328°
2026-04-29 02:52 -38.81275 144.70453 17796 ft 341 kts 328°
2026-04-29 02:52 -38.79279 144.68839 17123 ft 338 kts 328°
2026-04-29 02:53 -38.77290 144.67235 16631 ft 337 kts 328°
2026-04-29 02:53 -38.75319 144.65641 16225 ft 334 kts 328°
2026-04-29 02:53 -38.73358 144.64056 15802 ft 332 kts 328°
2026-04-29 02:53 -38.71415 144.62488 15398 ft 329 kts 328°
2026-04-29 02:54 -38.69483 144.60932 14980 ft 327 kts 328°
2026-04-29 02:54 -38.67562 144.59389 14593 ft 325 kts 328°
2026-04-29 02:54 -38.65652 144.57858 14182 ft 323 kts 328°
2026-04-29 02:54 -38.63752 144.56336 13757 ft 321 kts 328°
2026-04-29 02:55 -38.61868 144.54824 13299 ft 319 kts 328°
2026-04-29 02:55 -38.59995 144.53320 12909 ft 317 kts 328°
2026-04-29 02:55 -38.58158 144.51846 12491 ft 315 kts 327°
2026-04-29 02:55 -38.56309 144.50365 12080 ft 313 kts 327°
2026-04-29 02:56 -38.54459 144.48900 11666 ft 312 kts 329°
2026-04-29 02:56 -38.52480 144.47808 11270 ft 311 kts 342°
2026-04-29 02:56 -38.50357 144.47301 10886 ft 310 kts 355°
2026-04-29 02:56 -38.48203 144.47234 10500 ft 309 kts 357°
2026-04-29 02:57 -38.46076 144.47177 10296 ft 300 kts 357°
2026-04-29 02:57 -38.44025 144.47115 10142 ft 290 kts 357°
2026-04-29 02:57 -38.42021 144.47051 9831 ft 286 kts 357°
2026-04-29 02:57 -38.40039 144.46986 9483 ft 284 kts 357°
2026-04-29 02:58 -38.38071 144.46921 9138 ft 282 kts 356°
2026-04-29 02:58 -38.36120 144.46858 8800 ft 279 kts 357°
2026-04-29 02:58 -38.34188 144.46796 8465 ft 277 kts 357°
2026-04-29 02:58 -38.32267 144.46735 8113 ft 275 kts 356°
2026-04-29 02:59 -38.30359 144.46677 7776 ft 274 kts 357°
2026-04-29 02:59 -38.28463 144.46619 7451 ft 272 kts 357°
2026-04-29 02:59 -38.26578 144.46560 7138 ft 270 kts 357°
2026-04-29 02:59 -38.24706 144.46504 6824 ft 268 kts 357°
2026-04-29 03:00 -38.22843 144.46449 6458 ft 267 kts 356°
2026-04-29 03:00 -38.20956 144.46398 5808 ft 277 kts 357°
2026-04-29 03:00 -38.19011 144.46395 5322 ft 281 kts 359°
2026-04-29 03:00 -38.17045 144.46550 4825 ft 285 kts
2026-04-29 03:01 -38.15073 144.46916 4294 ft 285 kts
2026-04-29 03:01 -38.13187 144.47543 3697 ft 276 kts 16°
2026-04-29 03:01 -38.11445 144.48471 3176 ft 266 kts 24°
2026-04-29 03:01 -38.09858 144.49577 2750 ft 255 kts 28°
2026-04-29 03:02 -38.08343 144.50682 2498 ft 254 kts 28°
2026-04-29 03:02 -38.06811 144.51764 2347 ft 251 kts 27°
2026-04-29 03:02 -38.05233 144.52713 2363 ft 251 kts 21°
2026-04-29 03:02 -38.03595 144.53459 2426 ft 238 kts 15°
2026-04-29 03:03 -38.02075 144.53923 2478 ft 223 kts
2026-04-29 03:03 -38.00525 144.54207 2505 ft 221 kts
2026-04-29 03:03 -37.99003 144.54348 2521 ft 227 kts
2026-04-29 03:03 -37.97502 144.54398 2639 ft 209 kts 357°
2026-04-29 03:04 -37.96132 144.53995 2528 ft 202 kts 333°
2026-04-29 03:04 -37.95119 144.52794 2228 ft 202 kts 302°
2026-04-29 03:04 -37.94805 144.51067 1875 ft 208 kts 268°
2026-04-29 03:04 -37.95347 144.49382 1557 ft 211 kts 227°
2026-04-29 03:05 -37.96614 144.48471 1338 ft 217 kts 196°
2026-04-29 03:05 -37.98062 144.47986 1068 ft 207 kts 195°
2026-04-29 03:05 -37.99397 144.47519 677 ft 192 kts 188°
2026-04-29 03:05 -38.00696 144.47323 532 ft 189 kts 187°
2026-04-29 03:06 -38.01979 144.47055 299 ft 184 kts 185°
2026-04-29 03:06 -38.03210 144.46859 56 ft 163 kts 183°
2026-04-29 03:06 -38.04189 144.46699 31 ft 101 kts 188°
2026-04-29 03:06 -38.04552 144.46633 33 ft 24 kts 186°
2026-04-29 03:07 -38.04638 144.46717 35 ft 13 kts 105°
2026-04-29 03:07 -38.04633 144.46817 35 ft 11 kts 55°
2026-04-29 03:07 -38.04556 144.46850 34 ft 13 kts
2026-04-29 03:07 -38.04464 144.46864 34 ft 14 kts
2026-04-29 03:08 -38.04362 144.46881 34 ft 15 kts
2026-04-29 03:08 -38.04253 144.46899 34 ft 16 kts
2026-04-29 03:08 -38.04136 144.46917 33 ft 17 kts
2026-04-29 03:08 -38.04011 144.46937 32 ft 19 kts
2026-04-29 03:09 -38.03882 144.46962 33 ft 19 kts
2026-04-29 03:09 -38.03746 144.46985 34 ft 20 kts
2026-04-29 03:09 -38.03606 144.47007 34 ft 21 kts
2026-04-29 03:09 -38.03460 144.47031 33 ft 22 kts
2026-04-29 03:10 -38.03330 144.47065 33 ft 16 kts 25°
2026-04-29 03:10 -38.03240 144.47145 32 ft 16 kts 53°
2026-04-29 03:10 -38.03169 144.47263 33 ft 17 kts 41°
2026-04-29 03:10 -38.03055 144.47326 32 ft 18 kts 17°
2026-04-29 03:11 -38.02927 144.47352 32 ft 17 kts
2026-04-29 03:11 -38.02839 144.47360 32 ft 10 kts 352°
2026-04-29 03:11 -38.02794 144.47359 32 ft 0 kts
2026-04-29 03:11 -38.02788 144.47359 32 ft 2 kts
2026-04-29 03:12 -38.02764 144.47363 32 ft 5 kts
2026-04-29 03:12 -38.02739 144.47367 32 ft 2 kts
2026-04-29 03:12 -38.02724 144.47370 32 ft 2 kts
2026-04-29 03:12 -38.02720 144.47371 30 ft 0 kts